| time (UTC) | temp C | wind direction | speed KPH | gust KPH | rain 1hr cm | rain 24hr cm | rain mn cm | humidity % | barometer mb |
| 20260510020039 | 7 | 65 | 0.0 | 0.0 | 0.00 | 0.00 | 0.00 | 84 | 1013.5 |
| 20260510014539 | 8 | 65 | 0.0 | 0.0 | 0.00 | 0.00 | 0.00 | 83 | 1013.6 |
| 20260510013042 | 8 | 65 | 0.0 | 0.0 | 0.00 | 0.00 | 0.00 | 83 | 1013.7 |
| 20260510011536 | 8 | 65 | 0.0 | 0.0 | 0.00 | 0.00 | 0.00 | 82 | 1013.7 |
| 20260510010034 | 8 | 65 | 0.0 | 0.0 | 0.00 | 0.00 | 0.00 | 81 | 1013.8 |
| 20260510004532 | 8 | 65 | 0.0 | 1.6 | 0.00 | 0.00 | 0.00 | 80 | 1013.8 |
| 20260510003044 | 8 | 65 | 0.0 | 0.0 | 0.00 | 0.00 | 0.00 | 78 | 1014.1 |
| 20260510001526 | 9 | 65 | 0.0 | 0.0 | 0.00 | 0.00 | 0.00 | 76 | 1014.1 |
| 20260510000026 | 10 | 65 | 0.0 | 0.0 | 0.00 | 0.00 | 0.00 | 74 | 1014.4 |
| 20260509234533 | 10 | 65 | 0.0 | 3.2 | 0.00 | 0.00 | 0.00 | 73 | 1014.6 |
| 20260509233033 | 10 | 64 | 1.6 | 6.4 | 0.00 | 0.00 | 0.00 | 72 | 1014.5 |
| 20260509231519 | 10 | 71 | 1.6 | 6.4 | 0.00 | 0.00 | 0.00 | 72 | 1014.6 |
| 20260509230018 | 10 | 61 | 1.6 | 4.8 | 0.00 | 0.00 | 0.00 | 73 | 1014.8 |
| 20260509224516 | 10 | 51 | 1.6 | 4.8 | 0.00 | 0.00 | 0.00 | 72 | 1015.0 |
| 20260509223016 | 11 | 46 | 0.0 | 3.2 | 0.00 | 0.00 | 0.00 | 72 | 1015.1 |
| 20260509221511 | 11 | 46 | 0.0 | 4.8 | 0.00 | 0.00 | 0.00 | 72 | 1015.1 |
| 20260509220016 | 11 | 44 | 3.2 | 6.4 | 0.00 | 0.00 | 0.00 | 72 | 1015.1 |
| 20260509214508 | 11 | 55 | 1.6 | 4.8 | 0.00 | 0.00 | 0.00 | 71 | 1015.2 |
| 20260509213008 | 11 | 53 | 0.0 | 8.0 | 0.00 | 0.00 | 0.00 | 71 | 1015.2 |
| 20260509211507 | 11 | 52 | 0.0 | 4.8 | 0.00 | 0.00 | 0.00 | 70 | 1015.5 |
| 20260509210005 | 11 | 59 | 1.6 | 4.8 | 0.00 | 0.00 | 0.00 | 70 | 1015.5 |
| 20260509204508 | 12 | 97 | 1.6 | 6.4 | 0.00 | 0.00 | 0.00 | 69 | 1015.4 |
| 20260509203006 | 12 | 72 | 1.6 | 6.4 | 0.00 | 0.00 | 0.00 | 69 | 1015.4 |
| 20260509201505 | 12 | 32 | 3.2 | 6.4 | 0.00 | 0.00 | 0.00 | 69 | 1015.4 |
| 20260509200003 | 12 | 42 | 3.2 | 6.4 | 0.00 | 0.00 | 0.00 | 69 | 1015.4 |
| 20260509194506 | 12 | 17 | 1.6 | 4.8 | 0.00 | 0.00 | 0.00 | 68 | 1015.4 |
| 20260509193002 | 13 | 28 | 1.6 | 4.8 | 0.00 | 0.00 | 0.00 | 66 | 1015.3 |
| 20260509191503 | 13 | 38 | 1.6 | 8.0 | 0.00 | 0.00 | 0.00 | 64 | 1015.2 |
| 20260509190001 | 13 | 35 | 4.8 | 9.7 | 0.00 | 0.00 | 0.00 | 63 | 1015.1 |
| 20260509184505 | 15 | 55 | 3.2 | 8.0 | 0.00 | 0.00 | 0.00 | 60 | 1015.1 |
| 20260509183001 | 15 | 69 | 4.8 | 9.7 | 0.00 | 0.00 | 0.00 | 60 | 1015.1 |
| 20260509181608 | 15 | 43 | 3.2 | 9.7 | 0.00 | 0.00 | 0.00 | 59 | 1014.9 |
| 20260509180105 | 15 | 70 | 3.2 | 9.7 | 0.00 | 0.00 | 0.00 | 59 | 1014.9 |
| 20260509174559 | 16 | 51 | 4.8 | 16.1 | 0.00 | 0.00 | 0.00 | 57 | 1014.8 |
| 20260509173102 | 16 | 18 | 6.4 | 16.1 | 0.00 | 0.00 | 0.00 | 57 | 1014.7 |
| 20260509171558 | 16 | 34 | 8.0 | 16.1 | 0.00 | 0.00 | 0.00 | 56 | 1014.4 |
| 20260509170104 | 16 | 30 | 6.4 | 16.1 | 0.00 | 0.00 | 0.00 | 57 | 1014.6 |
| 20260509164556 | 16 | 21 | 6.4 | 19.3 | 0.00 | 0.00 | 0.00 | 56 | 1014.5 |
| 20260509163104 | 16 | 27 | 9.7 | 16.1 | 0.00 | 0.00 | 0.00 | 56 | 1014.7 |
| 20260509161556 | 16 | 54 | 6.4 | 17.7 | 0.00 | 0.00 | 0.00 | 56 | 1014.8 |
| 20260509160051 | 16 | 20 | 6.4 | 17.7 | 0.00 | 0.00 | 0.00 | 55 | 1014.9 |
| 20260509154555 | 16 | 74 | 8.0 | 17.7 | 0.00 | 0.00 | 0.00 | 56 | 1015.1 |
| 20260509153046 | 17 | 18 | 6.4 | 16.1 | 0.00 | 0.00 | 0.00 | 54 | 1015.1 |
| 20260509151547 | 17 | 21 | 6.4 | 17.7 | 0.00 | 0.00 | 0.00 | 57 | 1015.2 |
| 20260509150045 | 17 | 31 | 4.8 | 16.1 | 0.00 | 0.00 | 0.00 | 55 | 1015.2 |
| 20260509144539 | 17 | 13 | 4.8 | 14.5 | 0.00 | 0.00 | 0.00 | 55 | 1015.2 |
| 20260509143046 | 17 | 117 | 4.8 | 14.5 | 0.00 | 0.00 | 0.00 | 53 | 1015.4 |
| 20260509141536 | 17 | 82 | 6.4 | 16.1 | 0.00 | 0.00 | 0.00 | 54 | 1015.6 |
| 20260509140034 | 17 | 74 | 4.8 | 14.5 | 0.00 | 0.00 | 0.00 | 54 | 1015.7 |
| 20260509134533 | 16 | 12 | 4.8 | 12.9 | 0.00 | 0.00 | 0.00 | 56 | 1016.0 |
| 20260509133031 | 16 | 36 | 3.2 | 9.7 | 0.00 | 0.00 | 0.00 | 56 | 1016.1 |
| 20260509131529 | 16 | 115 | 3.2 | 8.0 | 0.00 | 0.00 | 0.00 | 55 | 1016.3 |
| 20260509130029 | 17 | 92 | 4.8 | 14.5 | 0.00 | 0.00 | 0.00 | 52 | 1016.4 |
| 20260509124535 | 17 | 65 | 3.2 | 17.7 | 0.00 | 0.00 | 0.00 | 56 | 1016.5 |
| 20260509123023 | 17 | 97 | 6.4 | 14.5 | 0.00 | 0.00 | 0.00 | 55 | 1016.5 |
| 20260509121534 | 16 | 9 | 4.8 | 16.1 | 0.00 | 0.00 | 0.00 | 56 | 1016.6 |
| 20260509120021 | 16 | 65 | 4.8 | 16.1 | 0.00 | 0.00 | 0.00 | 59 | 1016.8 |
| 20260509114540 | 15 | 25 | 8.0 | 16.1 | 0.00 | 0.00 | 0.00 | 58 | 1017.0 |
| 20260509113019 | 16 | 15 | 6.4 | 16.1 | 0.00 | 0.00 | 0.00 | 58 | 1017.1 |
| 20260509111517 | 17 | 38 | 3.2 | 9.7 | 0.00 | 0.00 | 0.00 | 54 | 1017.3 |
| 20260509110016 | 16 | 95 | 6.4 | 12.9 | 0.00 | 0.00 | 0.00 | 57 | 1017.4 |
| 20260509104515 | 16 | 90 | 6.4 | 14.5 | 0.00 | 0.00 | 0.00 | 56 | 1017.5 |
| 20260509103009 | 15 | 31 | 4.8 | 9.7 | 0.00 | 0.00 | 0.00 | 55 | 1017.7 |
| 20260509101510 | 15 | 43 | 4.8 | 14.5 | 0.00 | 0.00 | 0.00 | 56 | 1017.7 |
| 20260509100007 | 15 | 37 | 4.8 | 14.5 | 0.00 | 0.00 | 0.00 | 58 | 1017.8 |
| 20260509094506 | 15 | 75 | 6.4 | 14.5 | 0.00 | 0.00 | 0.00 | 55 | 1017.8 |
| 20260509093006 | 15 | 326 | 1.6 | 9.7 | 0.00 | 0.00 | 0.00 | 56 | 1017.8 |
| 20260509091506 | 15 | 28 | 4.8 | 12.9 | 0.00 | 0.00 | 0.00 | 50 | 1017.9 |
| 20260509090006 | 15 | 188 | 1.6 | 8.0 | 0.00 | 0.00 | 0.00 | 56 | 1017.9 |
| 20260509084605 | 15 | 88 | 4.8 | 11.3 | 0.00 | 0.00 | 0.00 | 58 | 1017.9 |
| 20260509083059 | 15 | 44 | 3.2 | 11.3 | 0.00 | 0.00 | 0.00 | 58 | 1018.1 |
| 20260509081559 | 15 | 30 | 1.6 | 9.7 | 0.00 | 0.00 | 0.00 | 57 | 1018.1 |
| 20260509080110 | 14 | 184 | 0.0 | 8.0 | 0.00 | 0.00 | 0.00 | 61 | 1018.2 |
| 20260509074555 | 14 | 90 | 1.6 | 6.4 | 0.00 | 0.00 | 0.00 | 59 | 1018.2 |
| 20260509073107 | 14 | 76 | 1.6 | 11.3 | 0.00 | 0.00 | 0.00 | 62 | 1018.1 |
| 20260509071553 | 14 | 110 | 1.6 | 6.4 | 0.00 | 0.00 | 0.00 | 62 | 1018.2 |
| 20260509070055 | 13 | 194 | 1.6 | 3.2 | 0.00 | 0.00 | 0.00 | 69 | 1018.1 |
| 20260509064544 | 12 | 194 | 0.0 | 4.8 | 0.00 | 0.00 | 0.00 | 72 | 1018.0 |
| 20260509063047 | 11 | 44 | 0.0 | 0.0 | 0.00 | 0.00 | 0.00 | 77 | 1018.1 |
| 20260509061539 | 10 | 44 | 0.0 | 0.0 | 0.00 | 0.00 | 0.00 | 80 | 1018.0 |
| 20260509060036 | 8 | 44 | 0.0 | 0.0 | 0.00 | 0.00 | 0.00 | 82 | 1018.1 |
| 20260509054532 | 7 | 44 | 0.0 | 0.0 | 0.00 | 0.00 | 0.00 | 85 | 1018.1 |
| 20260509053040 | 6 | 44 | 0.0 | 0.0 | 0.00 | 0.00 | 0.00 | 90 | 1018.1 |
| 20260509051531 | 5 | 44 | 0.0 | 0.0 | 0.00 | 0.00 | 0.00 | 91 | 1018.0 |
| 20260509050046 | 4 | 44 | 0.0 | 0.0 | 0.00 | 0.00 | 0.00 | 90 | 1017.9 |
| 20260509044531 | 4 | 44 | 0.0 | 0.0 | 0.00 | 0.00 | 0.00 | 90 | 1017.8 |
| 20260509043036 | 4 | 44 | 0.0 | 0.0 | 0.00 | 0.00 | 0.00 | 89 | 1017.7 |
| 20260509041528 | 4 | 44 | 0.0 | 0.0 | 0.00 | 0.00 | 0.00 | 90 | 1017.7 |
| 20260509040027 | 4 | 44 | 0.0 | 0.0 | 0.00 | 0.00 | 0.00 | 90 | 1017.5 |
| 20260509034526 | 4 | 44 | 0.0 | 0.0 | 0.00 | 0.00 | 0.00 | 90 | 1017.6 |
| 20260509033035 | 4 | 44 | 0.0 | 0.0 | 0.00 | 0.00 | 0.00 | 89 | 1017.6 |
| 20260509031528 | 4 | 44 | 0.0 | 0.0 | 0.00 | 0.00 | 0.00 | 89 | 1017.8 |
| 20260509030025 | 4 | 44 | 0.0 | 0.0 | 0.00 | 0.00 | 0.00 | 89 | 1017.9 |
| 20260509024526 | 4 | 44 | 0.0 | 0.0 | 0.00 | 0.00 | 0.00 | 89 | 1017.9 |
| 20260509023024 | 4 | 44 | 0.0 | 0.0 | 0.00 | 0.00 | 0.00 | 90 | 1017.9 |
| 20260509021519 | 4 | 44 | 0.0 | 0.0 | 0.00 | 0.00 | 0.00 | 89 | 1018.0 |